TimeCST,TemperatureF,Dew PointF,Humidity,Sea Level PressureIn,VisibilityMPH,Wind Direction,Wind SpeedMPH,Gust SpeedMPH,PrecipitationIn,Events,Conditions,WindDirDegrees,DateUTC
12:54 AM,30.0,19.0,64,30.26,10.0,NNW,8.1,-,N/A,,Clear,330,2013-01-26 06:54:00
1:54 AM,30.9,19.9,64,30.26,10.0,North,6.9,-,N/A,,Clear,350,2013-01-26 07:54:00
2:54 AM,32.0,19.9,61,30.28,10.0,Calm,Calm,-,N/A,,Clear,0,2013-01-26 08:54:00
3:54 AM,30.9,21.0,67,30.29,10.0,NE,5.8,-,N/A,,Clear,50,2013-01-26 09:54:00
4:54 AM,28.9,21.9,75,30.29,10.0,NE,6.9,-,N/A,,Clear,40,2013-01-26 10:54:00
5:54 AM,28.0,21.9,78,30.30,10.0,NE,9.2,-,N/A,,Clear,50,2013-01-26 11:54:00
6:54 AM,25.0,18.0,75,30.34,10.0,ENE,6.9,-,N/A,,Clear,70,2013-01-26 12:54:00
7:54 AM,24.1,17.1,75,30.37,10.0,East,5.8,-,N/A,,Clear,80,2013-01-26 13:54:00
8:54 AM,27.0,15.1,61,30.37,10.0,ENE,8.1,-,N/A,,Clear,70,2013-01-26 14:54:00
9:54 AM,30.9,16.0,54,30.38,10.0,ESE,6.9,-,N/A,,Clear,110,2013-01-26 15:54:00
10:54 AM,34.0,17.1,50,30.38,10.0,East,8.1,-,N/A,,Clear,100,2013-01-26 16:54:00
11:54 AM,37.0,19.0,48,30.36,10.0,SE,5.8,-,N/A,,Clear,140,2013-01-26 17:54:00
12:54 PM,39.9,19.0,43,30.33,10.0,Variable,5.8,-,N/A,,Clear,0,2013-01-26 18:54:00
1:54 PM,43.0,19.9,40,30.29,10.0,Variable,5.8,-,N/A,,Clear,0,2013-01-26 19:54:00
2:54 PM,44.1,18.0,35,30.27,10.0,Variable,4.6,-,N/A,,Clear,0,2013-01-26 20:54:00
3:54 PM,45.0,19.0,36,30.26,10.0,East,8.1,-,N/A,,Clear,100,2013-01-26 21:54:00
4:54 PM,44.1,19.0,37,30.26,10.0,East,8.1,-,N/A,,Clear,100,2013-01-26 22:54:00
5:54 PM,39.0,18.0,43,30.26,10.0,East,6.9,-,N/A,,Clear,100,2013-01-26 23:54:00
6:54 PM,37.9,18.0,45,30.26,10.0,East,10.4,-,N/A,,Clear,100,2013-01-27 00:54:00
7:54 PM,37.0,16.0,42,30.25,10.0,ESE,10.4,-,N/A,,Clear,110,2013-01-27 01:54:00
8:54 PM,36.0,16.0,44,30.25,10.0,ESE,9.2,-,N/A,,Clear,110,2013-01-27 02:54:00
9:54 PM,35.1,17.1,48,30.25,10.0,ESE,10.4,-,N/A,,Clear,120,2013-01-27 03:54:00
10:54 PM,34.0,18.0,52,30.24,10.0,ESE,11.5,-,N/A,,Clear,120,2013-01-27 04:54:00
11:54 PM,33.1,18.0,54,30.23,10.0,ESE,11.5,-,N/A,,Partly Cloudy,120,2013-01-27 05:54:00